Location: Crescent
(42.8242°N, 73.7329°W)
Time: 19:35:11
(UTC+00:00)

Explorer 7 - Pass Details

Date: 25 February 2026
Orbit: 430 x 541 km, 50.2° (Epoch: 10 March)

Event Time Altitude Azimuth Distance (km) Brightness Sun altitude
Rises 16:30:58 0° 221° (SW) 2,383 10.5 37.6°
Reaches altitude 10° 16:33:07 10° 215° (SW) 1,521 9.8 37.7°
Maximum altitude 16:36:22 43° 142° (SE) 622 8.7 37.8°
Drops below altitude 10° 16:39:41 10° 70° (ENE) 1,552 9.1 37.9°
Sets 16:41:53 0° 63° (ENE) 2,438 10.0 37.9°
